SCP
0 0 0 0 0 0 0 0 0 0 0 0 0 0 0 0 0 0 0 0 0 0 0 0 0 0 0 -0 -0 0 0 -0
0 0 0 0 0 0 0 0 0 0 0 0 0 0 0 0 0 0 0 0 0 1 1 0 0 0 0 0 0 0 0 0
0 0 0 0 0 0 0 0 0 0 0 0 0 0 0 -0 0 0 0 0 0 1 1 0 0 0 0 0 0 0 0 0
0 0 0 0 0 0 0 0 0 0 0 0 0 0 0 0 0 0 0 -0 -0 0 0 0 0 0 0 0 0 0 0 0
0 0 0 0 0 0 0 0 0 0 0 0 0 0 0 0 0 0 0 0 0 0 0 0 0 0 0 0 0 0 0 0
0 0 0 0 0 0 0 0 0 0 0 0 0 0 0 0 -0 0 0 0 0 0 0 0 0 0 0 0 0 0 0 0
0 0 0 0 0 0 0 0 0 0 0 0 0 0 0 0 1 0 0 0 0 0 0 0 0 0 0 0 0 0 0 0
0 0 0 0 0 0 0 0 0 0 0 0 0 0 0 -0 -0 1 0 0 0 1 0 0 0 0 0 0 0 0 0 0
0 0 0 0 0 0 0 0 0 0 0 0 0 0 0 0 0 0 1 1 1 2 1 0 0 0 0 0 0 0 0 0
0 0 0 0 0 0 0 0 0 0 0 0 0 0 0 0 0 -0 0 1 1 2 2 1 0 0 0 0 0 0 0 0
0 0 0 0 0 0 0 0 0 0 0 0 0 0 0 0 0 0 0 1 1 2 1 1 1 0 0 0 0 0 0 0
0 0 0 0 0 0 0 0 0 0 0 0 0 0 0 0 0 -0 -0 1 1 1 1 1 1 1 0 0 0 0 0 0
0 0 0 0 0 0 0 0 0 0 0 0 0 0 0 0 0 0 -0 -0 1 2 1 1 1 1 0 0 0 0 0 0
0 0 0 0 0 0 0 0 0 0 0 0 0 0 0 0 0 0 0 0 0 1 1 1 1 1 1 0 0 0 0 0
0 0 0 0 0 0 0 0 0 0 0 0 0 0 0 0 0 0 0 0 1 1 1 2 2 2 1 1 0 0 0 0
0 0 0 0 0 0 0 0 0 0 0 0 0 0 0 0 0 0 0 0 1 1 2 3 3 2 1 1 0 0 0 0
0 0 0 0 0 0 0 0 0 0 0 0 0 0 0 0 0 0 0 0 1 1 2 4 2 2 2 1 0 0 0 0
0 0 0 0 0 0 0 0 0 0 0 0 0 0 0 0 0 0 0 0 0 1 2 3 3 3 2 1 0 0 0 0
0 -0 -0 0 0 0 0 0 0 0 0 0 0 0 0 0 0 0 0 1 1 2 2 3 2 2 2 1 1 0 0 0
0 -0 0 0 0 0 0 0 0 0 0 0 0 0 0 0 0 0 0 0 1 1 3 3 2 2 2 2 1 0 0 0
Wind_Speed_500mb
10 19 28 22 13 20 8 9 7 9 9 12 9 11 13 19 2 19 39 47 65 63 57 51 52 54 51 49 48 44 40 35
19 26 18 19 4 2 13 17 10 8 17 9 10 14 18 12 9 18 32 43 64 62 55 51 50 53 51 51 48 45 40 35
26 31 13 11 8 11 13 10 15 6 25 13 4 19 28 12 3 17 32 42 58 60 55 52 52 53 53 52 49 45 39 35
28 30 12 20 14 18 24 18 20 20 22 20 8 20 33 18 7 17 31 39 58 61 55 48 51 54 53 51 48 43 40 38
27 17 13 20 3 22 17 25 23 13 26 14 14 32 36 15 9 18 30 37 48 64 57 51 50 53 52 51 47 43 40 38
18 18 23 6 11 2 15 23 21 26 16 21 19 37 26 15 10 18 29 37 40 49 60 54 49 49 50 49 46 45 43 40
13 14 2 5 16 15 12 27 40 40 44 41 46 31 24 12 8 22 31 38 42 46 46 51 44 52 47 45 43 42 41 39
10 13 11 16 24 22 20 24 30 43 45 38 31 29 26 17 14 25 33 40 44 48 50 48 44 52 50 48 44 42 40 39
15 18 18 20 34 30 26 25 22 35 44 41 37 35 30 21 21 23 29 44 46 53 52 50 45 44 42 43 39 38 39 39
27 24 29 29 37 42 38 37 29 37 42 41 38 34 29 23 18 21 26 35 52 58 62 52 47 45 43 41 39 37 38 41
27 35 40 37 40 41 47 39 35 29 37 35 29 25 25 22 16 23 27 32 53 58 66 53 53 48 45 41 40 34 37 39
26 24 24 29 32 27 33 22 27 31 33 35 29 25 22 19 18 19 25 36 40 56 65 60 54 53 54 47 39 38 34 38
14 10 20 18 39 32 13 15 22 26 30 37 39 32 31 27 24 25 28 33 44 51 60 73 56 57 53 46 45 39 34 39
13 19 22 15 32 15 15 18 28 34 37 43 49 44 36 33 29 28 30 37 46 49 58 66 58 63 54 51 47 45 43 41
23 8 24 22 28 20 19 34 46 41 40 41 49 50 43 39 34 33 32 36 48 53 55 65 68 59 57 59 48 50 47 46
33 30 29 43 48 41 46 46 42 48 43 45 48 56 45 40 36 33 34 37 47 58 58 65 64 54 50 57 52 44 49 47
36 35 39 44 47 40 43 45 40 48 48 46 52 54 47 43 38 33 34 39 51 58 64 66 69 62 58 57 54 46 44 49
32 27 27 41 50 42 40 46 48 47 46 43 47 49 49 44 40 34 37 40 47 61 59 65 67 65 61 58 54 49 49 50
34 33 34 34 49 26 19 25 32 36 41 42 48 50 51 41 41 36 38 41 46 59 60 64 62 62 58 54 49 49 54 55
34 30 23 21 27 29 31 18 19 30 26 28 36 38 46 42 40 36 39 43 48 57 61 62 68 64 79 78 69 66 59 47
Wind_Direction_500mb
230 237 247 258 154 245 175 253 283 264 273 300 341 351 336 339 148 188 186 187 190 188 188 183 185 184 183 184 178 176 175 175
243 233 241 276 146 253 248 234 229 294 261 256 20 352 334 322 258 211 195 187 197 189 189 186 186 186 185 185 182 180 180 181
239 244 248 244 246 266 262 268 250 306 255 268 306 25 6 350 276 202 192 186 192 191 190 189 187 188 190 188 187 185 186 187
240 236 208 257 232 259 267 267 271 262 292 263 211 339 340 319 279 198 194 185 193 191 190 191 192 191 194 195 194 191 191 189
273 271 237 254 15 248 268 270 263 309 279 265 235 335 341 309 238 194 189 187 192 193 191 193 192 192 195 199 198 194 192 187
247 257 252 178 272 239 256 275 295 282 261 237 321 327 338 336 227 200 200 192 191 190 193 194 193 192 193 197 194 190 186 187
250 250 146 243 293 275 266 281 277 274 271 279 297 303 314 319 209 210 206 203 196 193 191 187 186 191 193 192 188 187 187 190
352 297 290 300 286 298 285 266 274 278 273 281 283 297 296 285 257 201 209 205 205 196 193 184 184 189 188 187 186 185 190 193
272 279 293 289 285 283 277 266 262 285 284 286 287 283 281 280 261 237 214 205 203 199 194 187 185 182 179 181 183 185 190 194
291 297 289 283 289 282 274 272 272 276 284 287 289 277 274 273 257 231 222 209 203 200 196 186 189 181 181 177 182 185 189 196
285 283 281 285 273 274 278 273 271 261 275 280 288 278 267 259 256 234 223 226 201 208 206 190 189 180 179 182 181 187 190 195
284 284 283 275 278 273 266 265 259 264 266 271 272 277 272 256 244 228 230 227 224 201 207 198 191 190 187 183 182 186 187 197
218 293 288 299 272 246 260 251 264 264 269 273 272 269 271 266 255 242 229 217 208 218 204 203 192 195 193 191 190 188 188 201
150 273 284 263 282 190 220 256 289 284 281 276 275 271 267 267 263 248 231 221 212 201 204 203 194 197 195 196 193 193 199 203
304 286 284 256 297 309 285 259 287 279 278 278 279 273 264 263 263 250 235 223 215 205 198 202 201 196 195 201 195 201 204 204
296 296 269 275 277 281 277 272 270 279 276 275 274 270 268 261 261 250 236 223 215 205 204 199 198 194 191 198 196 198 204 204
290 295 283 280 278 279 279 271 269 272 270 265 266 270 268 259 255 248 231 219 208 202 207 204 200 191 192 192 190 195 198 202
301 305 282 279 280 283 276 273 267 269 271 263 262 267 267 255 245 240 228 219 211 206 206 209 204 192 195 190 189 193 197 202
304 305 272 271 282 269 283 256 267 265 264 266 268 269 264 253 237 239 227 217 211 209 210 212 203 187 185 178 180 187 194 199
294 300 309 327 295 302 303 296 240 268 264 274 274 270 259 254 236 235 230 216 207 210 215 209 200 187 191 188 188 193 191 190
Wind_Speed_850mb
10 19 28 22 13 20 8 9 7 9 9 12 9 11 13 19 2 19 39 47 65 63 57 51 52 54 51 49 48 44 40 35
19 26 18 19 4 2 13 17 10 8 17 9 10 14 18 12 9 18 32 43 64 62 55 51 50 53 51 51 48 45 40 35
26 31 13 11 8 11 13 10 15 6 25 13 4 19 28 12 3 17 32 42 58 60 55 52 52 53 53 52 49 45 39 35
28 30 12 20 14 18 24 18 20 20 22 20 8 20 33 18 7 17 31 39 58 61 55 48 51 54 53 51 48 43 40 38
27 17 13 20 3 22 17 25 23 13 26 14 14 32 36 15 9 18 30 37 48 64 57 51 50 53 52 51 47 43 40 38
18 18 23 6 11 2 15 23 21 26 16 21 19 37 26 15 10 18 29 37 40 49 60 54 49 49 50 49 46 45 43 40
13 14 2 5 16 15 12 27 40 40 44 41 46 31 24 12 8 22 31 38 42 46 46 51 44 52 47 45 43 42 41 39
10 13 11 16 24 22 20 24 30 43 45 38 31 29 26 17 14 25 33 40 44 48 50 48 44 52 50 48 44 42 40 39
15 18 18 20 34 30 26 25 22 35 44 41 37 35 30 21 21 23 29 44 46 53 52 50 45 44 42 43 39 38 39 39
27 24 29 29 37 42 38 37 29 37 42 41 38 34 29 23 18 21 26 35 52 58 62 52 47 45 43 41 39 37 38 41
27 35 40 37 40 41 47 39 35 29 37 35 29 25 25 22 16 23 27 32 53 58 66 53 53 48 45 41 40 34 37 39
26 24 24 29 32 27 33 22 27 31 33 35 29 25 22 19 18 19 25 36 40 56 65 60 54 53 54 47 39 38 34 38
14 10 20 18 39 32 13 15 22 26 30 37 39 32 31 27 24 25 28 33 44 51 60 73 56 57 53 46 45 39 34 39
13 19 22 15 32 15 15 18 28 34 37 43 49 44 36 33 29 28 30 37 46 49 58 66 58 63 54 51 47 45 43 41
23 8 24 22 28 20 19 34 46 41 40 41 49 50 43 39 34 33 32 36 48 53 55 65 68 59 57 59 48 50 47 46
33 30 29 43 48 41 46 46 42 48 43 45 48 56 45 40 36 33 34 37 47 58 58 65 64 54 50 57 52 44 49 47
36 35 39 44 47 40 43 45 40 48 48 46 52 54 47 43 38 33 34 39 51 58 64 66 69 62 58 57 54 46 44 49
32 27 27 41 50 42 40 46 48 47 46 43 47 49 49 44 40 34 37 40 47 61 59 65 67 65 61 58 54 49 49 50
34 33 34 34 49 26 19 25 32 36 41 42 48 50 51 41 41 36 38 41 46 59 60 64 62 62 58 54 49 49 54 55
34 30 23 21 27 29 31 18 19 30 26 28 36 38 46 42 40 36 39 43 48 57 61 62 68 64 79 78 69 66 59 47
Wind_Direction_850mb
230 237 247 258 154 245 175 253 283 264 273 300 341 351 336 339 148 188 186 187 190 188 188 183 185 184 183 184 178 176 175 175
243 233 241 276 146 253 248 234 229 294 261 256 20 352 334 322 258 211 195 187 197 189 189 186 186 186 185 185 182 180 180 181
239 244 248 244 246 266 262 268 250 306 255 268 306 25 6 350 276 202 192 186 192 191 190 189 187 188 190 188 187 185 186 187
240 236 208 257 232 259 267 267 271 262 292 263 211 339 340 319 279 198 194 185 193 191 190 191 192 191 194 195 194 191 191 189
273 271 237 254 15 248 268 270 263 309 279 265 235 335 341 309 238 194 189 187 192 193 191 193 192 192 195 199 198 194 192 187
247 257 252 178 272 239 256 275 295 282 261 237 321 327 338 336 227 200 200 192 191 190 193 194 193 192 193 197 194 190 186 187
250 250 146 243 293 275 266 281 277 274 271 279 297 303 314 319 209 210 206 203 196 193 191 187 186 191 193 192 188 187 187 190
352 297 290 300 286 298 285 266 274 278 273 281 283 297 296 285 257 201 209 205 205 196 193 184 184 189 188 187 186 185 190 193
272 279 293 289 285 283 277 266 262 285 284 286 287 283 281 280 261 237 214 205 203 199 194 187 185 182 179 181 183 185 190 194
291 297 289 283 289 282 274 272 272 276 284 287 289 277 274 273 257 231 222 209 203 200 196 186 189 181 181 177 182 185 189 196
285 283 281 285 273 274 278 273 271 261 275 280 288 278 267 259 256 234 223 226 201 208 206 190 189 180 179 182 181 187 190 195
284 284 283 275 278 273 266 265 259 264 266 271 272 277 272 256 244 228 230 227 224 201 207 198 191 190 187 183 182 186 187 197
218 293 288 299 272 246 260 251 264 264 269 273 272 269 271 266 255 242 229 217 208 218 204 203 192 195 193 191 190 188 188 201
150 273 284 263 282 190 220 256 289 284 281 276 275 271 267 267 263 248 231 221 212 201 204 203 194 197 195 196 193 193 199 203
304 286 284 256 297 309 285 259 287 279 278 278 279 273 264 263 263 250 235 223 215 205 198 202 201 196 195 201 195 201 204 204
296 296 269 275 277 281 277 272 270 279 276 275 274 270 268 261 261 250 236 223 215 205 204 199 198 194 191 198 196 198 204 204
290 295 283 280 278 279 279 271 269 272 270 265 266 270 268 259 255 248 231 219 208 202 207 204 200 191 192 192 190 195 198 202
301 305 282 279 280 283 276 273 267 269 271 263 262 267 267 255 245 240 228 219 211 206 206 209 204 192 195 190 189 193 197 202
304 305 272 271 282 269 283 256 267 265 264 266 268 269 264 253 237 239 227 217 211 209 210 212 203 187 185 178 180 187 194 199
294 300 309 327 295 302 303 296 240 268 264 274 274 270 259 254 236 235 230 216 207 210 215 209 200 187 191 188 188 193 191 190